• In Uzbekistan
  • List of Countries
  • For 7 days
  • Water Temperature
  • Satellite Maps
  • Weather Map
  • Weather Widgets
  • user-avatar
    Login

    Hourly Weather Al-Ahmadi

    Today, 18 October, Wednesday

    Time Temperature Precipitation Wind Pressure Humidity
    00:00 +29°C° 0 mm 5 mps 749 mmHg 22%
    01:00 +28°C° 0 mm 6 mps 749 mmHg 22%
    02:00 +28°C° 0 mm 6 mps 749 mmHg 22%
    03:00 +28°C° 0 mm 7 mps 749 mmHg 22%
    04:00 +27°C° 0 mm 7 mps 750 mmHg 23%
    05:00 +27°C° 0 mm 7 mps 750 mmHg 25%
    06:00 +27°C° 0 mm 7 mps 751 mmHg 26%
    07:00 +28°C° 0 mm 7 mps 751 mmHg 23%
    08:00 +30°C° 0 mm 7 mps 751 mmHg 21%
    09:00 +33°C° 0 mm 7 mps 751 mmHg 18%
    10:00 +34°C° 0 mm 7 mps 751 mmHg 16%
    11:00 +35°C° 0 mm 6 mps 751 mmHg 15%
    12:00 +38°C° 0 mm 6 mps 751 mmHg 13%
    13:00 +37°C° 0 mm 5 mps 751 mmHg 13%
    14:00 +37°C° 0 mm 5 mps 750 mmHg 12%
    15:00 +38°C° 0 mm 4 mps 750 mmHg 12%
    16:00 +36°C° 0 mm 4 mps 750 mmHg 14%
    17:00 +34°C° 0 mm 3 mps 750 mmHg 16%
    18:00 +31°C° 0 mm 2 mps 750 mmHg 18%
    19:00 +31°C° 0 mm 3 mps 751 mmHg 18%
    20:00 +31°C° 0 mm 3 mps 751 mmHg 18%
    21:00 +30°C° 0 mm 4 mps 751 mmHg 18%
    22:00 +30°C° 0 mm 4 mps 751 mmHg 18%
    23:00 +29°C° 0 mm 5 mps 751 mmHg 18%

    Tomorrow, 19 October, Thursday

    Time Temperature Precipitation Wind Pressure Humidity
    00:00 +29°C° 0 mm 5 mps 751 mmHg 19%
    01:00 +28°C° 0 mm 6 mps 751 mmHg 19%
    02:00 +28°C° 0 mm 6 mps 751 mmHg 20%
    03:00 +28°C° 0 mm 6 mps 751 mmHg 20%
    04:00 +27°C° 0 mm 6 mps 752 mmHg 20%
    05:00 +27°C° 0 mm 6 mps 752 mmHg 21%
    06:00 +26°C° 0 mm 6 mps 752 mmHg 21%
    07:00 +28°C° 0 mm 6 mps 753 mmHg 18%
    08:00 +30°C° 0 mm 6 mps 753 mmHg 16%
    09:00 +33°C° 0 mm 6 mps 753 mmHg 13%
    10:00 +34°C° 0 mm 6 mps 753 mmHg 12%
    11:00 +36°C° 0 mm 6 mps 753 mmHg 11%
    12:00 +37°C° 0 mm 5 mps 753 mmHg 9%
    13:00 +37°C° 0 mm 5 mps 752 mmHg 9%
    14:00 +39°C° 0 mm 5 mps 752 mmHg 9%
    15:00 +39°C° 0 mm 5 mps 752 mmHg 9%
    16:00 +36°C° 0 mm 4 mps 752 mmHg 11%
    17:00 +34°C° 0 mm 4 mps 752 mmHg 13%
    18:00 +33°C° 0 mm 3 mps 752 mmHg 14%
    19:00 +32°C° 0 mm 4 mps 752 mmHg 15%
    20:00 +32°C° 0 mm 4 mps 752 mmHg 16%
    21:00 +30°C° 0 mm 4 mps 753 mmHg 17%
    22:00 +29°C° 0 mm 4 mps 753 mmHg 17%
    23:00 +29°C° 0 mm 4 mps 752 mmHg 18%

    Day after tomorrow, 20 October, Friday

    Time Temperature Precipitation Wind Pressure Humidity
    00:00 +28°C° 0 mm 4 mps 752 mmHg 18%
    01:00 +28°C° 0 mm 4 mps 752 mmHg 19%
    02:00 +27°C° 0 mm 4 mps 752 mmHg 20%
    03:00 +27°C° 0 mm 4 mps 751 mmHg 21%
    04:00 +26°C° 0 mm 4 mps 751 mmHg 22%
    05:00 +26°C° 0 mm 4 mps 751 mmHg 23%
    06:00 +26°C° 0 mm 4 mps 751 mmHg 24%
    07:00 +28°C° 0 mm 3 mps 752 mmHg 21%
    08:00 +30°C° 0 mm 3 mps 753 mmHg 17%
    09:00 +33°C° 0 mm 3 mps 753 mmHg 13%
    10:00 +34°C° 0 mm 3 mps 753 mmHg 12%
    11:00 +35°C° 0 mm 3 mps 753 mmHg 10%
    12:00 +37°C° 0 mm 2 mps 752 mmHg 9%
    13:00 +37°C° 0 mm 2 mps 752 mmHg 9%
    14:00 +37°C° 0 mm 2 mps 751 mmHg 9%
    15:00 +36°C° 0 mm 1 mps 751 mmHg 9%
    16:00 +34°C° 0 mm 1 mps 751 mmHg 11%
    17:00 +32°C° 0 mm 1 mps 751 mmHg 12%
    18:00 +30°C° 0 mm 1 mps 751 mmHg 14%
    19:00 +30°C° 0 mm 1 mps 751 mmHg 15%
    20:00 +29°C° 0 mm 1 mps 751 mmHg 15%
    21:00 +29°C° 0 mm 1 mps 751 mmHg 15%
    22:00 +28°C° 0 mm 1 mps 750 mmHg 16%
    23:00 +28°C° 0 mm 1 mps 750 mmHg 17%

    21 October, Saturday

    Time Temperature Precipitation Wind Pressure Humidity
    00:00 +27°C° 0 mm 1 mps 750 mmHg 18%
    01:00 +27°C° 0 mm 1 mps 750 mmHg 19%
    02:00 +26°C° 0 mm 2 mps 750 mmHg 19%
    03:00 +26°C° 0 mm 2 mps 750 mmHg 20%
    04:00 +25°C° 0 mm 2 mps 750 mmHg 20%
    05:00 +25°C° 0 mm 2 mps 750 mmHg 21%
    06:00 +25°C° 0 mm 2 mps 750 mmHg 21%
    07:00 +27°C° 0 mm 2 mps 750 mmHg 18%
    08:00 +30°C° 0 mm 2 mps 751 mmHg 15%
    09:00 +34°C° 0 mm 2 mps 751 mmHg 12%
    10:00 +35°C° 0 mm 2 mps 751 mmHg 12%
    11:00 +36°C° 0 mm 2 mps 750 mmHg 11%
    12:00 +37°C° 0 mm 2 mps 749 mmHg 10%
    13:00 +37°C° 0 mm 3 mps 749 mmHg 11%
    14:00 +37°C° 0 mm 3 mps 748 mmHg 11%
    15:00 +37°C° 0 mm 4 mps 748 mmHg 12%
    16:00 +35°C° 0 mm 3 mps 748 mmHg 16%
    17:00 +33°C° 0 mm 3 mps 748 mmHg 19%
    18:00 +30°C° 0 mm 3 mps 748 mmHg 23%
    19:00 +29°C° 0 mm 2 mps 748 mmHg 24%
    20:00 +28°C° 0 mm 2 mps 749 mmHg 25%
    21:00 +27°C° 0 mm 1 mps 749 mmHg 26%
    22:00 +27°C° 0 mm 1 mps 749 mmHg 25%
    23:00 +26°C° 0 mm 2 mps 749 mmHg 25%

    22 October, Sunday

    Time Temperature Precipitation Wind Pressure Humidity
    00:00 +26°C° 0 mm 2 mps 749 mmHg 24%
    01:00 +26°C° 0 mm 2 mps 749 mmHg 23%
    02:00 +26°C° 0 mm 3 mps 749 mmHg 22%
    03:00 +26°C° 0 mm 3 mps 749 mmHg 20%
    04:00 +26°C° 0 mm 3 mps 749 mmHg 21%
    05:00 +26°C° 0 mm 4 mps 749 mmHg 21%
    06:00 +25°C° 0 mm 4 mps 750 mmHg 21%
    07:00 +28°C° 0 mm 4 mps 750 mmHg 18%
    08:00 +30°C° 0 mm 4 mps 750 mmHg 16%
    09:00 +33°C° 0 mm 4 mps 751 mmHg 13%
    10:00 +34°C° 0 mm 4 mps 750 mmHg 12%
    11:00 +36°C° 0 mm 3 mps 750 mmHg 11%
    12:00 +37°C° 0 mm 3 mps 750 mmHg 9%
    13:00 +37°C° 0 mm 3 mps 749 mmHg 9%
    14:00 +37°C° 0 mm 3 mps 749 mmHg 9%
    15:00 +37°C° 0 mm 2 mps 749 mmHg 9%
    16:00 +35°C° 0 mm 2 mps 749 mmHg 11%
    17:00 +32°C° 0 mm 2 mps 749 mmHg 14%
    18:00 +30°C° 0 mm 2 mps 749 mmHg 16%
    19:00 +29°C° 0 mm 2 mps 749 mmHg 16%
    20:00 +28°C° 0 mm 2 mps 749 mmHg 17%
    21:00 +28°C° 0 mm 2 mps 750 mmHg 18%
    22:00 +27°C° 0 mm 2 mps 749 mmHg 18%
    23:00 +26°C° 0 mm 2 mps 749 mmHg 18%

    23 October, Monday

    Time Temperature Precipitation Wind Pressure Humidity
    00:00 +26°C° 0 mm 2 mps 749 mmHg 18%
    01:00 +25°C° 0 mm 2 mps 749 mmHg 18%
    02:00 +24°C° 0 mm 2 mps 749 mmHg 19%
    03:00 +24°C° 0 mm 1 mps 748 mmHg 20%
    04:00 +23°C° 0 mm 1 mps 749 mmHg 20%
    05:00 +23°C° 0 mm 1 mps 749 mmHg 21%
    06:00 +23°C° 0 mm 1 mps 749 mmHg 21%
    07:00 +26°C° 0 mm 1 mps 750 mmHg 18%
    08:00 +29°C° 0 mm 1 mps 750 mmHg 15%
    09:00 +31°C° 0 mm 0 mps 751 mmHg 11%
    10:00 +34°C° 0 mm 1 mps 750 mmHg 11%
    11:00 +36°C° 0 mm 2 mps 750 mmHg 10%
    12:00 +38°C° 0 mm 3 mps 749 mmHg 9%
    13:00 +38°C° 0 mm 4 mps 749 mmHg 9%
    14:00 +38°C° 0 mm 4 mps 749 mmHg 10%
    15:00 +39°C° 0 mm 5 mps 748 mmHg 11%
    16:00 +36°C° 0 mm 5 mps 748 mmHg 15%
    17:00 +34°C° 0 mm 5 mps 749 mmHg 20%
    18:00 +32°C° 0 mm 5 mps 749 mmHg 25%
    19:00 +30°C° 0 mm 5 mps 749 mmHg 28%
    20:00 +29°C° 0 mm 5 mps 749 mmHg 30%
    21:00 +29°C° 0 mm 5 mps 749 mmHg 33%
    22:00 +28°C° 0 mm 4 mps 749 mmHg 35%
    23:00 +28°C° 0 mm 4 mps 749 mmHg 37%
    Show more